Skip Page Navigation
NASA JPL Caltech
NASA Logo - Jet Propulsion Laboratory + View the NASA Portal
+ Near-Earth Object (NEO) Program
Search JPL
JPL Home Earth Solar System Stars & Galaxies Technology
JPL Solar System Dynamics
BODIES ORBITS EPHEMERIDES TOOLS PHYSICAL DATA DISCOVERY FAQ SITE MAP
JPL Small-Body Database Browser
Search: [ help ]  
14030 (1994 UP1)
Classification: Main-belt Asteroid          SPK-ID: 2014030
Ephemeris | Orbit Diagram | Orbital Elements | Physical Parameters | Discovery Circumstances ]

[ show orbit diagram ]
Orbital Elements at Epoch 2456400.5 (2013-Apr-18.0) TDB
Reference: MPO233601 (heliocentric ecliptic J2000)
 Element Value Uncertainty (1-sigma)   Units 
e 0.1350569 n/a  
a 2.5539474 n/a AU
q 2.2090192 n/a AU
i 13.79991 n/a deg
node 34.07802 n/a deg
peri 50.25043 n/a deg
M 154.71968 n/a deg
tp 2455759.7931140
(2011-Jul-17.29311400)
n/a JED
period 1490.7895296
4.08
n/a
n/a
d
yr
n 0.24148278 n/a deg/d
Q 2.8988756 n/a AU
  Orbit Determination Parameters
   # obs. used (total)      622  
   first obs. used      1976-??-??  
   last obs. used      2012-06-15  
   # oppositions      12  
   planetary ephem.      DE403  
   condition code      0  
   fit RMS      0.60  
   data source      MPC:mpn  
   producer      MPCLINUX  

Additional Information
 T_jup = 3.386 

Ephemeris | Orbit Diagram | Orbital Elements | Physical Parameters | Discovery Circumstances ]

Physical Parameter Table
Parameter Symbol Value Units Sigma Reference Notes
absolute magnitude H 13.8 mag n/a PDS3 (MPC 39059)  

14030 (1994 UP1)          Discovered 1994-Oct-25 by Ueda, S., Kaneda, H. at Kushiro (399)
Reference: 20000320/Numbers.arcLast Updated: 2004-04-19

Alternate Designations
 1994 UP1 = 1976 JQ4 = 1986 XQ3 = 1998 SH65 
Ephemeris | Orbit Diagram | Orbital Elements | Physical Parameters | Discovery Circumstances ]
ABOUT SSD CREDITS/AWARDS PRIVACY/COPYRIGHT GLOSSARY LINKS
FirstGov 2013-May-20 08:45 UT
(server date/time)  
NASA Home Page
Site Manager:   Donald K. Yeomans
Webmaster  Alan B. Chamberlin